Volver al catálogo

NOAA 16 DEB

ActivoSSO
NORAD 41058·DEBRIS·🇺🇸 United States

Lanzado Sep 21, 2000 desde Vandenberg Space Force Base

Loading…

Próximos Pases (próximas 24 horas)

TLE

ActualizadoSource: Space-Track

Época: Sep 14, 2026, 09:24 UTC

1 41058U 00055R   26257.39191403  .00000612  00000-0  34923-3 0  9993
2 41058  98.5988 251.1948 0021731 250.9200 108.9620 14.13116696555536

Sigue NOAA 16 DEB en tiempo real con AllMySat

Download on the App Store